• Join FlightAware (Why Join?)
  • Login
  • US Flag GB Flag 
12:20 EST


 

Airport Tracker/Info


-or-


 

Live Flight TrackerFlight Track Log ✈ DAL1114 ✈ 04-May-2013 ✈ KBTR - KATL

Flight Track Log - Related Links

Times and Time Zones

All times are in EDT time to prevent confusion due to time zone crossing. See the DAL1114 flight status page for this flight to view local times or setup timezone preferences in your user account.

Time Position Orientation Groundspeed Altitude Reporting Facility
EDT Latitude Longitude Course Direction KTS MPH feet Rate Location/Type
21:25 30.4758 -91.2114 80° East 193 222 29,000  Level Houston Center
21:26 30.4289 -91.2361 204° Southwest 268 308 5,400 -10,500 Descending Houston Center
21:27 30.6897 -90.6259 65° Northeast  Level FlightAware Approximate
21:27 30.4031 -91.1647 113° Southeast 286 329 7,700  Level Houston Center
21:28 30.7410 -90.5014 60° Northeast  Level FlightAware Approximate
21:28 30.4361 -91.0794 66° East 288 331 10,300  Level Houston Center
21:29 30.7665 -90.3676 81° East  Level FlightAware Approximate
21:29 30.4694 -90.9781 69° East 328 377 11,600  Level Houston Center
21:30 30.7849 -90.2392 80° East  Level FlightAware Approximate
21:30 30.5078 -90.8603 69° East 386 444 12,900  Level Houston Center
21:31 30.5597 -90.7017 69° East 436 502 14,400 1,680 Climbing Houston Center
21:32 30.6064 -90.5556 70° East 476 548 16,400 1,860 Climbing Houston Center
21:33 30.6233 -90.3967 83° East 494 568 18,200 1,680 Climbing Houston Center
21:34 30.6439 -90.2361 81° East 501 577 19,900 1,560 Climbing Houston Center
21:35 30.6742 -90.0728 78° East 511 588 21,400 1,440 Climbing Houston Center
21:36 30.7214 -89.9122 71° East 520 598 22,900 1,200 Climbing Houston Center
21:37 30.7831 -89.7567 65° Northeast 524 603 23,900 1,020 Climbing Houston Center
21:38 30.8461 -89.5967 65° Northeast 535 616 25,000 900 Climbing Houston Center
21:39 30.9053 -89.4333 67° East 543 625 25,800 840 Climbing Houston Center
21:40 30.9578 -89.2656 70° East 548 631 26,800 1,020 Climbing Houston Center
21:41 30.9914 -89.0878 78° East 559 643 27,900 1,020 Climbing Houston Center
21:42 31.0167 -88.8989 81° East 555 639 28,900 540 Climbing Houston Center
21:43 31.0344 -88.7172 83° East 567 652 29,000  Climbing Houston Center
21:44 31.0581 -88.5486 81° East 564 649 28,900 -60 Descending Houston Center
21:45 31.1431 -88.4078 55° Northeast 537 618 28,900 60 Level Houston Center
21:46 31.1978 -88.3497 42° Northeast 540 621 29,000 60 Climbing Atlanta Center
21:47 31.2903 -88.2083 53° Northeast 513 590 29,000  Level Atlanta Center
21:48 31.3411 -88.1203 56° Northeast 542 624 29,000  Level Houston Center
21:48 31.3764 -88.0639 54° Northeast 524 603 29,000  Level Atlanta Center
21:49 31.4603 -87.9167 56° Northeast 535 616 29,000  Level Atlanta Center
21:50 31.5525 -87.7722 53° Northeast 541 623 29,000  Level Atlanta Center
21:51 31.6403 -87.6269 55° Northeast 546 628 29,000  Level Atlanta Center
21:52 31.7319 -87.4842 53° Northeast 551 634 29,000  Level Atlanta Center
21:53 31.8061 -87.3697 53° Northeast 556 640 29,000  Level Atlanta Center
21:54 31.9108 -87.1950 55° Northeast 556 640 29,000  Level Atlanta Center
21:55 32.0042 -87.0489 53° Northeast 551 634 29,000  Level Atlanta Center
21:56 32.0911 -86.9047 55° Northeast 551 634 29,000  Level Atlanta Center
21:57 32.1803 -86.7528 55° Northeast 551 634 29,000 -180 Level Atlanta Center
21:58 32.2603 -86.6228 54° Northeast 551 634 28,700 -600 Descending Atlanta Center
21:59 32.3425 -86.4728 57° Northeast 551 634 27,900 -960 Descending Atlanta Center
22:00 32.4119 -86.3319 60° Northeast 568 654 26,800 -1,380 Descending Atlanta Center
22:01 32.5197 -86.1500 55° Northeast 563 648 25,200 -1,200 Descending Atlanta Center
22:02 32.6033 -86.0039 56° Northeast 553 636 24,500 -780 Descending Atlanta Center
22:03 32.6872 -85.8578 56° Northeast 534 615 23,700 -780 Descending Atlanta Center
22:04 32.7683 -85.7186 55° Northeast 523 602 23,000 -1,440 Descending Atlanta Center
22:05 32.8453 -85.5817 56° Northeast 512 589 20,900 -2,340 Descending Atlanta Center
22:06 32.9242 -85.4569 53° Northeast 487 560 18,400 -2,880 Descending Atlanta Center
22:07 32.9881 -85.3342 58° Northeast 460 529 15,200 -2,820 Descending Atlanta Center
22:08 33.0350 -85.2233 63° Northeast 438 504 12,800 -1,620 Descending Atlanta Center
22:09 33.1172 -85.1300 44° Northeast 397 457 12,000 -420 Descending Atlanta Center
22:10 33.1950 -85.0667 34° Northeast 345 397 12,000 -60 Level Atlanta Center
22:11 33.2478 -84.9953 49° Northeast 330 380 11,900 -840 Descending Atlanta Center
22:12 33.2986 -84.9136 53° Northeast 310 357 10,400 -1,620 Descending Atlanta Center
22:13 33.3514 -84.8347 51° Northeast 300 345 8,700 -1,680 Descending Atlanta Center
22:14 33.4000 -84.8000 31° Northeast 304 350 7,700 -1,560 Descending Atlanta TRACON
22:14 33.4667 -84.8000 360° North 287 330 6,500 -1,560 Descending Atlanta TRACON
22:15 33.5500 -84.8167 351° North 257 296 4,800 -1,380 Descending Atlanta TRACON
22:16 33.6000 -84.8167 360° North 235 270 3,800 -960 Descending Atlanta TRACON
22:17 33.6333 -84.7667 51° Northeast 209 241 3,000 -360 Descending Atlanta TRACON
22:18 33.6333 -84.7000 90° East 173 199 3,100  Climbing Atlanta TRACON
22:19 33.6333 -84.6333 90° East 175 201 3,100  Level Atlanta TRACON
22:20 33.6333 -84.5833 90° East 176 203 3,100 -480 Level Atlanta TRACON
22:21 33.6333 -84.5167 90° East 162 186 2,200 -780 Descending Atlanta TRACON
22:22 33.6333 -84.4667 90° East 131 151 1,500 -720 Descending Atlanta TRACON